Regional Weather Roundup
Issued by NWS

Home | Current Version | Previous Version | Graphics & Text | Print | Product List | Glossary On
Versions: 1 2 3 4 5 6 7 8 9 10 11 12 13 14 15 16 17 18 19 20 21 22 23 24 25 26 27 28 29 30 31 32 33 34 35 36 37 38 39 40 41 42 43 44 45 46 47 48 49 50
000
ASUS43 KFSD 170202
RWRSD

WEATHER ROUNDUP FOR SOUTH DAKOTA
NATIONAL WEATHER SERVICE SIOUX FALLS SD
900 PM CDT MON OCT 16 2017

NOTE: "FAIR" INDICATES FEW OR NO CLOUDS BELOW 12,000 FEET WITH NO
SIGNIFICANT WEATHER AND/OR OBSTRUCTIONS TO VISIBILITY.


SDZ001>005-009-010-012>017-170300-
NORTHWEST AND NORTH CENTRAL SOUTH DAKOTA

CITY           SKY/WX    TMP DP  RH WIND       PRES   REMARKS
BUFFALO          N/A     54  27  35 W6        29.99S
FAITH            N/A     57  30  35 W5        30.05R
MOBRIDGE       CLEAR     47  36  65 NW3       29.97R
$$

SDZ012>016-024>037-041>051-057-063-072>074-170300-
SOUTHWEST AND SOUTH CENTRAL SOUTH DAKOTA

CITY           SKY/WX    TMP DP  RH WIND       PRES   REMARKS
RAPID CTY ARPT CLEAR     51  30  44 NW7       30.10R
PIERRE         CLEAR     54  37  52 W6        30.00R
CUSTER         CLEAR     49  21  33 CALM      30.19S
ELLSWORTH AFB  CLEAR     63  26  25 SW3       30.09R
PHILIP         CLEAR     50  37  61 W9        30.04S
PINE RIDGE     CLEAR     43  33  68 E6        30.13R
SPEARFISH      FAIR      50  30  46 S3        30.13R
WINNER         FAIR      55  40  56 S5        30.04S
$$

SDZ004>011-016>023-039-040-170300-
NORTHEAST SOUTH DAKOTA

CITY           SKY/WX    TMP DP  RH WIND       PRES   REMARKS
ABERDEEN       CLEAR     45  40  82 SW8       29.96R
WATERTOWN      CLEAR     48  41  76 SW9       29.97S
BROOKINGS      CLOUDY    52  40  63 W3        30.00R
SISSETON         N/A     60  42  51 SW14      29.92S
$$

SDZ017-020-022-023-036>040-048>070-170300-
SOUTHEAST SOUTH DAKOTA

CITY           SKY/WX    TMP DP  RH WIND       PRES   REMARKS
SIOUX FALLS    PTCLDY    59  41  51 SW6       30.00F
HURON          CLOUDY    55  42  61 SW9       29.98F
CHAMBERLAIN    CLOUDY    56  41  58 CALM      30.02S
MITCHELL       PTCLDY    56  43  61 SW6       30.01S
YANKTON        CLEAR     63  39  41 SW6       30.03R
$$

ABBREVIATIONS USED IN REMARKS
   TC - TEMPERATURE IN CELSIUS
  WCI - WIND CHILL INDEX
   HX - HEAT INDEX
  VSB - VISIBILITY





USA.gov is the U.S. government's official web portal to all federal, state and local government web resources and services.